FW7064 Weather Reports


Display with metric or nautical units.
time (UTC)temp
F
wind
direction
speed
MPH
gust
MPH
rain 1hr
in
rain 24hr
in
rain mn
in
humidity
%
barometer
mb
20260505003004 58 296 0.0 0.0 0.00 0.00 0.00 84 1011.3
20260505002005 56 292 0.0 0.0 0.00 0.00 0.00 85 1011.5
20260505001902 56 292 0.0 0.0 0.00 0.00 0.00 85 1011.4
20260505000904 56 315 0.0 0.0 0.00 0.00 0.00 83 1011.3
20260504235905 58 315 0.0 0.0 0.00 0.00 0.00 83 1011.3
20260504234906 56 314 0.0 0.0 0.00 0.00 0.00 84 1011.3
20260504234002 57 315 0.0 0.0 0.00 0.00 0.00 82 1011.3
20260504233904 57 315 0.0 0.0 0.00 0.00 0.00 82 1011.3
20260504232905 58 292 0.0 0.0 0.00 0.00 0.00 82 1011.5
20260504230905 58 294 0.0 0.0 0.00 0.00 0.00 82 1011.4
20260504225904 58 314 0.0 0.0 0.00 0.00 0.00 81 1011.6
20260504225003 58 317 0.0 0.0 0.00 0.00 0.00 82 1011.6
20260504224004 58 316 0.0 0.0 0.00 0.00 0.00 82 1011.8
20260504223006 58 316 0.0 0.0 0.00 0.00 0.00 81 1011.8
20260504222012 59 314 0.0 0.0 0.00 0.00 0.00 81 1011.9
20260504221011 59 317 0.0 0.0 0.00 0.00 0.00 82 1011.6
20260504215111 58 315 0.0 0.0 0.00 0.00 0.00 82 1012.0
20260504214112 58 315 0.0 0.0 0.00 0.00 0.00 83 1012.0
20260504212111 58 315 0.0 0.0 0.00 0.00 0.00 79 1012.3
20260504211112 59 316 0.0 0.0 0.00 0.00 0.00 80 1012.2
20260504210110 58 318 0.0 0.0 0.00 0.00 0.00 79 1012.4
20260504210013 58 315 0.0 0.0 0.00 0.00 0.00 79 1012.3
20260504205111 59 315 0.0 0.0 0.00 0.00 0.00 78 1012.3
20260504204110 59 315 0.0 0.0 0.00 0.00 0.00 78 1012.2
20260504203112 59 314 0.0 0.0 0.00 0.00 0.00 76 1012.2
20260504202111 61 315 0.0 0.0 0.00 0.00 0.00 75 1012.2
20260504201210 60 315 0.0 0.0 0.00 0.00 0.00 74 1012.1
20260504200212 60 313 0.0 0.0 0.00 0.00 0.00 74 1012.2
20260504194212 61 315 0.0 0.0 0.00 0.00 0.00 72 1012.1
20260504193211 60 315 0.0 0.0 0.00 0.00 0.00 74 1012.2
20260504192310 59 315 0.0 0.0 0.00 0.00 0.00 77 1012.3
20260504191314 59 315 0.0 0.0 0.00 0.00 0.00 76 1012.2
20260504185511 62 337 0.0 0.0 0.00 0.00 0.00 72 1012.2
20260504184512 62 15 0.0 0.0 0.00 0.00 0.00 73 1012.1
20260504183512 62 22 0.0 0.0 0.00 0.00 0.00 73 1012.2
20260504182512 62 337 0.0 0.0 0.00 0.00 0.00 75 1012.4
20260504180611 59 315 0.0 0.0 0.00 0.00 0.00 77 1012.6
20260504175612 59 315 0.0 0.0 0.00 0.00 0.00 77 1012.4
20260504174614 61 360 0.0 0.0 0.00 0.00 0.00 76 1012.5
20260504173612 60 360 0.0 0.0 0.00 0.00 0.00 78 1012.5
20260504171711 58 337 0.0 0.0 0.00 0.00 0.00 81 1012.4
20260504170713 58 315 0.0 0.0 0.00 0.00 0.00 81 1012.5
20260504150711 58 180 0.0 0.0 0.00 0.00 0.00 83 1011.8
20260504120214 54 292 0.0 0.0 0.00 0.00 0.00 83 1011.0
20260504110411 53 157 0.0 0.0 0.00 0.00 0.00 85 1011.0
20260504080910 57 157 0.0 0.0 0.00 0.00 0.00 77 1010.4
20260504070211 57 157 0.0 0.0 0.00 0.00 0.00 81 1010.7
20260504050319 59 29 0.0 0.0 0.00 0.00 0.00 71 1011.1
20260504045218 58 22 0.0 0.0 0.00 0.00 0.00 71 1011.1
20260504043219 60 292 0.0 0.0 0.00 0.00 0.00 71 1011.1
20260504042220 60 292 0.0 0.0 0.00 0.00 0.00 65 1011.0
20260504042118 60 292 0.0 0.0 0.00 0.00 0.00 65 1011.0
20260504040118 63 292 0.0 0.0 0.00 0.00 0.00 60 1010.9
20260504035119 61 292 0.0 0.0 0.00 0.00 0.00 64 1010.9
20260504033121 63 292 0.0 0.0 0.00 0.00 0.00 61 1010.8
20260504032121 65 292 0.0 0.0 0.00 0.00 0.00 63 1010.7
20260504031119 64 292 0.0 0.0 0.00 0.00 0.00 67 1010.7
20260504030121 64 292 0.0 0.0 0.00 0.00 0.00 66 1010.7
20260504025119 64 315 0.0 0.0 0.00 0.00 0.00 62 1010.8
20260504024120 63 315 0.0 0.0 0.00 0.00 0.00 65 1010.9
20260504023121 60 316 0.0 0.0 0.00 0.00 0.00 69 1011.0
20260504022219 60 337 0.0 0.0 0.00 0.00 0.00 71 1011.1
20260504021221 60 337 0.0 0.0 0.00 0.00 0.00 72 1011.1
20260504020220 60 337 0.0 0.0 0.00 0.00 0.00 71 1011.1
20260504015318 60 315 0.0 0.0 0.00 0.00 0.00 72 1011.3
20260504014320 59 315 0.0 0.0 0.00 0.00 0.00 72 1011.3
20260504013417 59 315 0.0 0.0 0.00 0.00 0.00 71 1011.5
20260504012420 59 315 0.0 0.0 0.00 0.00 0.00 71 1011.5
20260504011420 59 315 0.0 0.0 0.00 0.00 0.00 70 1011.7
20260504010419 60 315 0.0 0.0 0.00 0.00 0.00 68 1011.6